Location: Olsztyn
(53.7767°N, 20.4765°E)
Time: 19:26:07
(UTC+02:00)

ISS - Visible Passes

Search period start: 30 September 2023 00:00
Search period end: 10 October 2023 00:00
Orbit: 414 x 421 km, 51.6° (Epoch: 30 September)

Date Brightness Start Highest point End Pass type
(mag) Time Alt. Az. Time Alt. Az. Time Alt. Az.
30 Sep -1.2 20:07:06 10° WSW 20:09:00 14° SW 20:10:43 11° S visible
01 Oct -1.5 19:18:37 10° W 19:21:08 20° SSW 19:23:38 10° SSE visible
03 Oct -0.7 19:20:31 10° SW 19:21:05 10° SW 19:21:39 10° SSW visible
